星链-5318 (STARLINK-5318 )

导读

STARLINK-5318是美国太空探索技术公司(SpaceX)星链(Starlink)卫星互联网项目中的一颗卫星,于北京时间2023年1月19日发射升空,属于星链星座组网部署任务的一部分,主要用于为全球范围内用户提供低延迟、高速率的宽带互联网接入服务。

Basic Information
目录编号:
55304
目录名称:
STARLINK-5318
国际标识:
2023-010AM
轨道中心:
EARTH
卫星名称:
星链-5318
卫星全名:
星链-5318 (STARLINK-5318 )
卫星状态:
在轨 (已飞行1243 天)
发射日期:
2023-01-19 UTC
国别 :
美国 (US)
星等 :
--
Orbit Information
数据来源 国际轨道数据 AOE轨道数据
星历时间 2026-06-15T06:58:17+0800
8小时前
查看轨道信息
2026-06-14T11:00:00+0800
1天前
查看轨道信息
半长轴 6950.165km 6950.161km
偏心率 0.0003889 0.000413
轨道倾角 69.999° 70.002°
近地点辐角 260.406° 262.908°
升交点赤经 139.017° 141.115°
平近点角 99.666° 289.835°
近地点 569.325km 569.153km
远地点 574.731km 574.895km
周期 96.106分钟 96.106分钟
每日圈数 14.983391 14.983405
Detailed Information
固有亮度:
5
最大亮度:
2.5
卫星平台:
Starlink v1.5
覆盖范围:
全球
运营商:
太空探索技术公司
运营商所在国:
美国
制造商(研发单位):
太空探索技术公司
制造商所在国:
美国
使用方式:
暂无
Satellite Introduction
星链(Starlink)计划是由太空探索技术公司(SpaceX)提出的一个巨型低轨卫星互联网星座项目,计划在2019年至2024年间在太空搭建由约1.2万颗卫星组成的“星链”网络,其中1584颗将部署在地球上空550千米处的近地轨道,并从2020年开始工作。该卫星仍在工作。
2D Orbit Map
3D Orbit Map
Orbit Altitude Analysis Chart
Orbit Inclination Analysis Chart
Orbit Comprehensive Analysis Chart
View Comprehensive Chart